Showing default

COSMOS 90, 1588

Orbit data source: Space-Track

COSMOS 90, 1588 is a payload satellite owned by OKB-10 (CIS) in LEO that was launched on Sat, 18 Sep 1965 UTC via a KOSMOS 65S3 launch vehicle from the Tyuratam Missile And Space Complex (TTMTR). Payload-class satellites include a variety of spacecraft equipped with specific instruments for various scientific and technological missions. These include communications satellites like Starlink; space stations such as the ISS; scientific satellites like the Hubble; Earth observation satellites from companies like Planet Labs, Umbra, and HawkEye 360; GPS; miniature CubeSats for education and research; and military/defense satellites.

Loading next visibility...
Identifier
1588, 1965-073E
Orbit
LEO
Country
Flag of CISCIS
Related business
Manufacturer
OKB-10
Mission
Defense Communications
Bus & Motor
STRELA-1 11F610, Unknown motor
Mass
50 kg wet, 50 kg dry
Launch date (UTC)
Icon of a cake. It is the launch day of the satellite!1965-09-18 (60 years ago)
Launch vehicle
KOSMOS 65S3
Launch site
Tyuratam Missile And Space Complex (TTMTR)
Object type
Payload
Rocket body
Debris
Shape & HBR
Poly, 0.4 m
Radar Cross Section
0.731 m², Medium (>0.1 m² and < 1m²)

Expand to show TLE details & history
Last TLE update: 1 day ago

TLE from 1 day ago
0 COSMOS 90
1 01588U 65073E   25260.07043631 -.00000069  00000-0  17606-3 0  9991
2 01588  56.0541 268.4216 0157532  81.0051 317.5079 12.34589159705261
Epoch: 2025-09-17T01:41Z
TLE epoch observation values (Epoch: 2025-09-17T01:41:25.697Z)
Latitude
30.23919°
Longitude
-90.20438°
Altitude
1,440.667 km
Speed
7.186 km/s
True Right ascension
19h 25m 37s
True Declination
30° 06' 10"
Sunlit
Object was in daylight at epoch
Visualization orbit readout
Latitude
Unknown
Longitude
Unknown
Altitude
Unknown
Speed
Unknown
Apparent Right ascension
Unknown
Apparent Declination
Unknown
Sunlit
N/A
Visualization observer readout
Local Sidereal Time
01:22:00
Azimuth
Unknown
Elevation
Unknown
Doppler factor
Unknown
Orbital elements
Apogee altitude
1,654.019 km
Perigee altitude
1,404.879 km
Semi-major axis
7,907.586 km
Eccentricity
0.01575
Inclination
56.0541°
RAAN
268.4216°
Arg. of periapsis
81.0051°
True anomaly
316.27066°
Mean anomaly
317.5079°
Eccentric anomaly
316.89108°
Mean motion
3.08658 °/min
Orbital period
116.63 mins
BSTAR
0.00017606
Loading maneuver chart data...
Computing Atmospheric mass density...
Loading historical data...
Loading historical data...
Loading historical data...
Loading historical data...
Loading historical data...
Loading historical data...
Loading historical data...

Documentation

Showing up to 5 results
|